Tracking 21612 objects as of 20-Oct-2020
HD Live streaming from Space Station
objects crossing your sky now

METEOR 1-27

Track METEOR 1-27 now!
10-day predictions
METEOR 1-27 is classified as:


NORAD ID: 9903
Int'l Code: 1977-024A
Perigee: 843.8 km
Apogee: 900.8 km
Inclination: 81.3 °
Period: 102.2 minutes
Semi major axis: 7243 km
RCS: 4.395 m2 (large)
Launch date: April 5, 1977
Source: Commonwealth of Independent States (former USSR) (CIS)
Launch site: PLESETSK MISSILE AND SPACE COMPLEX (PKMTR)
aabbcc
Your satellite tracking list
Your tracking list is empty




NASA's NSSDC Master Catalog

Two Line Element Set (TLE):
1  9903U 77024A   20292.62233695 -.00000002 +00000-0 -87642-5 0  9998
2  9903 081.2619 340.0893 0039315 083.3847 277.1796 14.08316439236516
Source of the keplerian elements: AFSPC